| time (UTC) | temp F | wind direction | speed MPH | gust MPH | rain 1hr in | rain 24hr in | rain mn in | humidity % | barometer mb |
| 20260905171603 | 90 | 26 | 1.0 | 4.0 | 0.00 | 0.00 | 0.00 | 64 | 1012.2 |
| 20260905171533 | 79 | 140 | 0.0 | 0.0 | 0.00 | 0.00 | 0.00 | 61 | 1013.7 |
| 20260905170055 | 90 | 48 | 1.0 | 4.0 | 0.00 | 0.00 | 0.00 | 62 | 1012.4 |
| 20260905170028 | 77 | 138 | 0.0 | 0.0 | 0.00 | 0.00 | 0.00 | 66 | 1013.6 |
| 20260905164548 | 90 | 58 | 2.0 | 4.0 | 0.00 | 0.00 | 0.00 | 62 | 1012.6 |
| 20260905164526 | 74 | 193 | 0.0 | 0.0 | 0.00 | 0.00 | 0.00 | 72 | 1013.7 |
| 20260905163045 | 90 | 21 | 1.0 | 3.0 | 0.00 | 0.00 | 0.00 | 63 | 1012.4 |
| 20260905163020 | 73 | 196 | 0.0 | 0.0 | 0.00 | 0.00 | 0.00 | 77 | 1013.6 |
| 20260905161542 | 88 | 54 | 1.0 | 3.0 | 0.00 | 0.00 | 0.00 | 65 | 1012.5 |
| 20260905161517 | 71 | 202 | 0.0 | 0.0 | 0.00 | 0.00 | 0.00 | 80 | 1013.5 |
| 20260905160046 | 87 | 29 | 1.0 | 6.0 | 0.00 | 0.00 | 0.00 | 65 | 1012.4 |
| 20260905160033 | 70 | 193 | 0.0 | 0.0 | 0.00 | 0.00 | 0.00 | 83 | 1013.5 |
| 20260905154550 | 88 | 85 | 1.0 | 3.0 | 0.00 | 0.00 | 0.00 | 65 | 1012.2 |
| 20260905154509 | 69 | 149 | 0.0 | 0.0 | 0.00 | 0.00 | 0.00 | 85 | 1013.5 |
| 20260905153033 | 87 | 123 | 1.0 | 3.0 | 0.00 | 0.00 | 0.00 | 65 | 1012.1 |
| 20260905153006 | 68 | 149 | 0.0 | 0.0 | 0.00 | 0.00 | 0.00 | 85 | 1013.3 |
| 20260905151530 | 85 | 133 | 1.0 | 3.0 | 0.00 | 0.00 | 0.00 | 67 | 1012.0 |
| 20260905151505 | 68 | 145 | 0.0 | 0.0 | 0.00 | 0.00 | 0.00 | 85 | 1013.1 |
| 20260905150026 | 84 | 133 | 1.0 | 3.0 | 0.00 | 0.00 | 0.00 | 69 | 1012.1 |
| 20260905150005 | 66 | 144 | 0.0 | 0.0 | 0.00 | 0.00 | 0.00 | 86 | 1013.1 |
| 20260905144535 | 82 | 190 | 2.0 | 5.0 | 0.00 | 0.00 | 0.00 | 71 | 1011.9 |
| 20260905144504 | 65 | 138 | 0.0 | 0.0 | 0.00 | 0.00 | 0.00 | 87 | 1013.0 |
| 20260905143018 | 81 | 208 | 1.0 | 3.0 | 0.00 | 0.00 | 0.00 | 78 | 1011.8 |
| 20260905143002 | 64 | 138 | 0.0 | 0.0 | 0.00 | 0.00 | 0.00 | 89 | 1012.8 |
| 20260905141515 | 79 | 182 | 0.0 | 2.0 | 0.00 | 0.00 | 0.00 | 83 | 1011.9 |
| 20260905141502 | 63 | 136 | 0.0 | 0.0 | 0.00 | 0.00 | 0.00 | 89 | 1012.7 |
| 20260905140101 | 63 | 136 | 0.0 | 0.0 | 0.00 | 0.00 | 0.00 | 90 | 1012.6 |
| 20260905140011 | 78 | 182 | 1.0 | 2.0 | 0.00 | 0.00 | 0.00 | 83 | 1011.9 |
| 20260905134601 | 62 | 136 | 0.0 | 0.0 | 0.00 | 0.00 | 0.00 | 90 | 1012.6 |
| 20260905134510 | 77 | 182 | 0.0 | 2.0 | 0.00 | 0.00 | 0.00 | 84 | 1011.9 |
| 20260905133058 | 63 | 136 | 0.0 | 0.0 | 0.00 | 0.00 | 0.00 | 89 | 1012.4 |
| 20260905133009 | 76 | 182 | 0.0 | 0.0 | 0.00 | 0.00 | 0.00 | 85 | 1011.6 |
| 20260905131559 | 63 | 136 | 0.0 | 0.0 | 0.00 | 0.00 | 0.00 | 89 | 1012.2 |
| 20260905131508 | 75 | 185 | 0.0 | 0.0 | 0.00 | 0.00 | 0.00 | 85 | 1011.5 |
| 20260905130056 | 63 | 135 | 0.0 | 0.0 | 0.00 | 0.00 | 0.00 | 89 | 1012.2 |
| 20260905130005 | 74 | 185 | 0.0 | 0.0 | 0.00 | 0.00 | 0.00 | 85 | 1011.2 |
| 20260905124556 | 63 | 135 | 0.0 | 0.0 | 0.00 | 0.00 | 0.00 | 88 | 1012.3 |
| 20260905124506 | 73 | 185 | 0.0 | 0.0 | 0.00 | 0.00 | 0.00 | 85 | 1011.1 |
| 20260905123053 | 63 | 135 | 0.0 | 0.0 | 0.00 | 0.00 | 0.00 | 88 | 1012.2 |
| 20260905123003 | 73 | 185 | 0.0 | 1.0 | 0.00 | 0.00 | 0.00 | 85 | 1010.9 |
| 20260905121553 | 63 | 135 | 0.0 | 0.0 | 0.00 | 0.00 | 0.00 | 87 | 1012.3 |
| 20260905121504 | 72 | 185 | 0.0 | 0.0 | 0.00 | 0.00 | 0.00 | 85 | 1010.9 |
| 20260905120054 | 64 | 135 | 0.0 | 0.0 | 0.00 | 0.00 | 0.00 | 87 | 1012.3 |
| 20260905120000 | 72 | 188 | 0.0 | 2.0 | 0.00 | 0.00 | 0.00 | 85 | 1010.9 |
| 20260905114611 | 72 | 191 | 0.0 | 4.0 | 0.00 | 0.00 | 0.00 | 85 | 1010.7 |
| 20260905114550 | 64 | 135 | 0.0 | 0.0 | 0.00 | 0.00 | 0.00 | 86 | 1012.1 |
| 20260905113059 | 72 | 230 | 0.0 | 2.0 | 0.00 | 0.00 | 0.00 | 85 | 1010.5 |
| 20260905113050 | 64 | 135 | 0.0 | 0.0 | 0.00 | 0.00 | 0.00 | 86 | 1012.2 |
| 20260905111616 | 64 | 135 | 0.0 | 0.0 | 0.00 | 0.00 | 0.00 | 86 | 1012.2 |
| 20260905111611 | 72 | 231 | 0.0 | 0.0 | 0.00 | 0.00 | 0.00 | 85 | 1010.4 |
| 20260905110046 | 65 | 135 | 0.0 | 0.0 | 0.00 | 0.00 | 0.00 | 87 | 1012.4 |
| 20260905104556 | 72 | 225 | 0.0 | 0.0 | 0.00 | 0.00 | 0.00 | 85 | 1010.2 |
| 20260905104544 | 65 | 135 | 0.0 | 0.0 | 0.00 | 0.00 | 0.00 | 87 | 1012.5 |
| 20260905103055 | 73 | 222 | 0.0 | 0.0 | 0.00 | 0.00 | 0.00 | 85 | 1010.2 |
| 20260905103042 | 66 | 135 | 0.0 | 0.0 | 0.00 | 0.00 | 0.00 | 87 | 1012.4 |
| 20260905101554 | 73 | 222 | 0.0 | 0.0 | 0.00 | 0.00 | 0.00 | 85 | 1010.2 |
| 20260905101545 | 66 | 135 | 0.0 | 0.0 | 0.00 | 0.00 | 0.00 | 87 | 1012.3 |
| 20260905100053 | 73 | 222 | 0.0 | 1.0 | 0.00 | 0.00 | 0.00 | 85 | 1010.1 |
| 20260905100039 | 66 | 135 | 0.0 | 0.0 | 0.00 | 0.00 | 0.00 | 88 | 1012.6 |
| 20260905094601 | 73 | 222 | 0.0 | 2.0 | 0.00 | 0.00 | 0.00 | 85 | 1010.1 |
| 20260905094538 | 66 | 135 | 0.0 | 0.0 | 0.00 | 0.00 | 0.00 | 88 | 1012.6 |
| 20260905093048 | 73 | 222 | 0.0 | 0.0 | 0.00 | 0.00 | 0.00 | 85 | 1010.3 |
| 20260905093040 | 66 | 136 | 0.0 | 0.0 | 0.00 | 0.00 | 0.00 | 88 | 1012.6 |
| 20260905091553 | 74 | 221 | 0.0 | 0.0 | 0.00 | 0.00 | 0.00 | 85 | 1010.4 |
| 20260905091535 | 67 | 136 | 0.0 | 0.0 | 0.00 | 0.00 | 0.00 | 88 | 1012.6 |
| 20260905090046 | 74 | 221 | 0.0 | 0.0 | 0.00 | 0.00 | 0.00 | 85 | 1010.4 |
| 20260905090036 | 67 | 136 | 0.0 | 0.0 | 0.00 | 0.00 | 0.00 | 88 | 1012.6 |
| 20260905084546 | 74 | 222 | 0.0 | 0.0 | 0.00 | 0.00 | 0.00 | 85 | 1010.3 |
| 20260905084532 | 67 | 136 | 0.0 | 0.0 | 0.00 | 0.00 | 0.00 | 89 | 1012.7 |
| 20260905083044 | 74 | 222 | 0.0 | 0.0 | 0.00 | 0.00 | 0.00 | 85 | 1010.3 |
| 20260905083037 | 67 | 136 | 0.0 | 0.0 | 0.00 | 0.00 | 0.00 | 89 | 1012.8 |
| 20260905081553 | 74 | 221 | 0.0 | 0.0 | 0.00 | 0.00 | 0.00 | 85 | 1010.3 |
| 20260905081530 | 67 | 136 | 0.0 | 0.0 | 0.00 | 0.00 | 0.00 | 89 | 1012.9 |
| 20260905080054 | 74 | 222 | 0.0 | 0.0 | 0.00 | 0.00 | 0.00 | 85 | 1010.3 |
| 20260905080040 | 68 | 136 | 0.0 | 0.0 | 0.00 | 0.00 | 0.00 | 89 | 1013.0 |
| 20260905074541 | 74 | 221 | 0.0 | 0.0 | 0.00 | 0.00 | 0.00 | 85 | 1010.3 |
| 20260905074528 | 68 | 135 | 0.0 | 0.0 | 0.00 | 0.00 | 0.00 | 89 | 1013.0 |
| 20260905073046 | 75 | 221 | 0.0 | 0.0 | 0.00 | 0.00 | 0.00 | 84 | 1010.3 |
| 20260905073027 | 67 | 135 | 0.0 | 0.0 | 0.00 | 0.00 | 0.00 | 89 | 1012.8 |
| 20260905071539 | 75 | 221 | 1.0 | 3.0 | 0.00 | 0.00 | 0.00 | 85 | 1010.3 |
| 20260905071528 | 67 | 135 | 0.0 | 0.0 | 0.00 | 0.00 | 0.00 | 88 | 1012.8 |
| 20260905070045 | 75 | 40 | 0.0 | 2.0 | 0.00 | 0.00 | 0.00 | 85 | 1010.5 |
| 20260905070023 | 68 | 135 | 0.0 | 0.0 | 0.00 | 0.00 | 0.00 | 88 | 1012.8 |
| 20260905064538 | 76 | 40 | 0.0 | 0.0 | 0.00 | 0.00 | 0.00 | 84 | 1010.6 |
| 20260905064531 | 68 | 135 | 0.0 | 0.0 | 0.00 | 0.00 | 0.00 | 88 | 1012.6 |
| 20260905063036 | 76 | 40 | 0.0 | 0.0 | 0.00 | 0.00 | 0.00 | 84 | 1010.7 |
| 20260905063022 | 68 | 135 | 0.0 | 0.0 | 0.00 | 0.00 | 0.00 | 87 | 1012.6 |
| 20260905061550 | 76 | 40 | 0.0 | 0.0 | 0.00 | 0.00 | 0.00 | 84 | 1010.7 |
| 20260905061522 | 68 | 135 | 0.0 | 0.0 | 0.00 | 0.00 | 0.00 | 87 | 1012.6 |
| 20260905060032 | 69 | 133 | 0.0 | 0.0 | 0.00 | 0.00 | 0.00 | 86 | 1012.5 |
| 20260905060030 | 77 | 40 | 0.0 | 0.0 | 0.00 | 0.00 | 0.00 | 84 | 1010.7 |
| 20260905054528 | 77 | 40 | 0.0 | 1.0 | 0.00 | 0.00 | 0.00 | 84 | 1010.4 |
| 20260905054521 | 69 | 133 | 0.0 | 0.0 | 0.00 | 0.00 | 0.00 | 86 | 1012.3 |
| 20260905053029 | 69 | 133 | 0.0 | 0.0 | 0.00 | 0.00 | 0.00 | 86 | 1012.3 |
| 20260905051533 | 77 | 210 | 0.0 | 4.0 | 0.00 | 0.00 | 0.00 | 84 | 1010.4 |
| 20260905051523 | 69 | 133 | 0.0 | 0.0 | 0.00 | 0.00 | 0.00 | 85 | 1012.3 |
| 20260905050024 | 78 | 189 | 1.0 | 3.0 | 0.00 | 0.00 | 0.00 | 84 | 1010.4 |
| 20260905050020 | 70 | 133 | 0.0 | 0.0 | 0.00 | 0.00 | 0.00 | 85 | 1012.3 |
| 20260905044526 | 78 | 171 | 0.0 | 0.0 | 0.00 | 0.00 | 0.00 | 84 | 1010.5 |
| 20260905044523 | 70 | 133 | 0.0 | 0.0 | 0.00 | 0.00 | 0.00 | 84 | 1012.1 |
| 20260905043037 | 79 | 171 | 0.0 | 0.0 | 0.00 | 0.00 | 0.00 | 84 | 1010.5 |
| 20260905043018 | 70 | 133 | 0.0 | 0.0 | 0.00 | 0.00 | 0.00 | 84 | 1012.2 |
| 20260905041522 | 79 | 171 | 0.0 | 2.0 | 0.00 | 0.00 | 0.00 | 84 | 1010.4 |
| 20260905041518 | 70 | 134 | 0.0 | 0.0 | 0.00 | 0.00 | 0.00 | 84 | 1012.0 |
| 20260905040029 | 79 | 171 | 0.0 | 0.0 | 0.00 | 0.00 | 0.00 | 83 | 1010.4 |
| 20260905040020 | 70 | 134 | 0.0 | 0.0 | 0.00 | 0.00 | 0.00 | 84 | 1011.9 |
| 20260905034528 | 80 | 171 | 0.0 | 0.0 | 0.00 | 0.00 | 0.00 | 83 | 1010.5 |
| 20260905034517 | 71 | 157 | 0.0 | 0.0 | 0.00 | 0.00 | 0.00 | 83 | 1011.8 |
| 20260905033021 | 80 | 171 | 0.0 | 0.0 | 0.00 | 0.00 | 0.00 | 83 | 1010.4 |
| 20260905033017 | 71 | 157 | 0.0 | 0.0 | 0.00 | 0.00 | 0.00 | 82 | 1011.7 |
| 20260905031522 | 81 | 171 | 0.0 | 0.0 | 0.00 | 0.00 | 0.00 | 81 | 1010.2 |
| 20260905031519 | 71 | 157 | 0.0 | 0.0 | 0.00 | 0.00 | 0.00 | 81 | 1011.5 |
| 20260905030022 | 72 | 158 | 0.0 | 0.0 | 0.00 | 0.00 | 0.00 | 80 | 1011.3 |
| 20260905030020 | 81 | 171 | 0.0 | 1.0 | 0.00 | 0.00 | 0.00 | 80 | 1010.1 |
| 20260905024528 | 72 | 144 | 0.0 | 0.0 | 0.00 | 0.00 | 0.00 | 78 | 1011.0 |
| 20260905024519 | 82 | 171 | 0.0 | 2.0 | 0.00 | 0.00 | 0.00 | 79 | 1010.0 |
| 20260905023019 | 83 | 192 | 0.0 | 2.0 | 0.00 | 0.00 | 0.00 | 78 | 1009.8 |
| 20260905023015 | 72 | 151 | 0.0 | 0.0 | 0.00 | 0.00 | 0.00 | 75 | 1011.0 |
| 20260905021518 | 83 | 192 | 0.0 | 1.0 | 0.00 | 0.00 | 0.00 | 75 | 1009.7 |
| 20260905021513 | 73 | 150 | 0.0 | 0.0 | 0.00 | 0.00 | 0.00 | 73 | 1011.1 |
| 20260905020022 | 73 | 147 | 0.0 | 0.0 | 0.00 | 0.00 | 0.00 | 71 | 1011.2 |
| 20260905020018 | 84 | 192 | 0.0 | 3.0 | 0.00 | 0.00 | 0.00 | 74 | 1009.6 |
| 20260905014520 | 85 | 189 | 0.0 | 0.0 | 0.00 | 0.00 | 0.00 | 70 | 1009.4 |
| 20260905014512 | 74 | 158 | 0.0 | 0.0 | 0.00 | 0.00 | 0.00 | 70 | 1011.2 |
| 20260905013017 | 86 | 189 | 0.0 | 1.0 | 0.00 | 0.00 | 0.00 | 68 | 1009.2 |
| 20260905013012 | 75 | 157 | 0.0 | 0.0 | 0.00 | 0.00 | 0.00 | 70 | 1011.2 |
| 20260905011516 | 88 | 189 | 0.0 | 1.0 | 0.00 | 0.00 | 0.00 | 65 | 1009.1 |
| 20260905011510 | 75 | 158 | 0.0 | 0.0 | 0.00 | 0.00 | 0.00 | 68 | 1011.3 |
| 20260905010020 | 90 | 189 | 0.0 | 0.0 | 0.00 | 0.00 | 0.00 | 61 | 1008.9 |
| 20260905010010 | 75 | 158 | 0.0 | 0.0 | 0.00 | 0.00 | 0.00 | 67 | 1011.4 |
| 20260905004518 | 91 | 189 | 0.0 | 0.0 | 0.00 | 0.00 | 0.00 | 58 | 1009.0 |
| 20260905004508 | 76 | 145 | 0.0 | 0.0 | 0.00 | 0.00 | 0.00 | 66 | 1011.3 |
| 20260905003021 | 93 | 189 | 0.0 | 3.0 | 0.00 | 0.00 | 0.00 | 54 | 1009.0 |
| 20260905003008 | 76 | 152 | 0.0 | 0.0 | 0.00 | 0.00 | 0.00 | 66 | 1011.4 |
| 20260905001514 | 94 | 195 | 0.0 | 4.0 | 0.00 | 0.00 | 0.00 | 51 | 1009.0 |
| 20260905001507 | 76 | 150 | 0.0 | 0.0 | 0.00 | 0.00 | 0.00 | 64 | 1011.6 |
| 20260905000025 | 95 | 171 | 2.0 | 5.0 | 0.00 | 0.00 | 0.00 | 49 | 1009.0 |
| 20260905000006 | 77 | 175 | 0.0 | 1.0 | 0.00 | 0.00 | 0.00 | 63 | 1011.4 |
| 20260904234508 | 77 | 196 | 0.0 | 0.0 | 0.00 | 0.00 | 0.00 | 64 | 1011.5 |
| 20260904234504 | 95 | 196 | 3.0 | 6.0 | 0.00 | 0.00 | 0.00 | 48 | 1009.1 |
| 20260904233105 | 96 | 206 | 3.0 | 8.0 | 0.00 | 0.00 | 0.00 | 47 | 1009.1 |
| 20260904233006 | 78 | 148 | 0.0 | 0.0 | 0.00 | 0.00 | 0.00 | 64 | 1011.5 |
| 20260904231549 | 96 | 143 | 4.0 | 9.0 | 0.00 | 0.00 | 0.00 | 46 | 1009.2 |
| 20260904231505 | 78 | 172 | 0.0 | 0.0 | 0.00 | 0.00 | 0.00 | 64 | 1011.5 |
| 20260904230041 | 96 | 176 | 6.0 | 11.0 | 0.00 | 0.00 | 0.00 | 46 | 1009.3 |
| 20260904230005 | 79 | 166 | 0.0 | 1.0 | 0.00 | 0.00 | 0.00 | 63 | 1011.5 |
| 20260904224540 | 96 | 164 | 7.0 | 14.0 | 0.00 | 0.00 | 0.00 | 46 | 1009.2 |
| 20260904224503 | 79 | 153 | 0.0 | 0.0 | 0.00 | 0.00 | 0.00 | 63 | 1011.5 |
| 20260904223124 | 96 | 224 | 3.0 | 12.0 | 0.00 | 0.00 | 0.00 | 47 | 1009.2 |
| 20260904223002 | 80 | 158 | 0.0 | 0.0 | 0.00 | 0.00 | 0.00 | 63 | 1011.7 |
| 20260904221520 | 96 | 122 | 6.0 | 11.0 | 0.00 | 0.00 | 0.00 | 46 | 1009.2 |
| 20260904221502 | 80 | 103 | 0.0 | 1.0 | 0.00 | 0.00 | 0.00 | 61 | 1011.5 |
| 20260904220013 | 96 | 202 | 4.0 | 10.0 | 0.00 | 0.00 | 0.00 | 45 | 1009.3 |
| 20260904220000 | 80 | 175 | 0.0 | 1.0 | 0.00 | 0.00 | 0.00 | 62 | 1011.6 |
| 20260904214616 | 81 | 173 | 0.0 | 0.0 | 0.00 | 0.00 | 0.00 | 62 | 1011.6 |
| 20260904214601 | 96 | 133 | 6.0 | 13.0 | 0.00 | 0.00 | 0.00 | 45 | 1009.3 |
| 20260904213059 | 81 | 169 | 0.0 | 0.0 | 0.00 | 0.00 | 0.00 | 62 | 1011.7 |
| 20260904213055 | 96 | 181 | 6.0 | 19.0 | 0.00 | 0.00 | 0.00 | 45 | 1009.3 |
| 20260904211606 | 81 | 149 | 0.0 | 1.0 | 0.00 | 0.00 | 0.00 | 62 | 1011.9 |
| 20260904210057 | 81 | 165 | 0.0 | 0.0 | 0.00 | 0.00 | 0.00 | 62 | 1011.9 |
| 20260904210048 | 96 | 134 | 7.0 | 13.0 | 0.00 | 0.00 | 0.00 | 46 | 1009.7 |
| 20260904204638 | 95 | 144 | 8.0 | 17.0 | 0.00 | 0.00 | 0.00 | 48 | 1009.8 |
| 20260904204555 | 81 | 217 | 0.0 | 0.0 | 0.00 | 0.00 | 0.00 | 61 | 1011.9 |
| 20260904203053 | 80 | 161 | 0.0 | 0.0 | 0.00 | 0.00 | 0.00 | 63 | 1012.0 |
| 20260904203043 | 95 | 211 | 3.0 | 14.0 | 0.00 | 0.00 | 0.00 | 47 | 1010.0 |
| 20260904201552 | 80 | 180 | 0.0 | 0.0 | 0.00 | 0.00 | 0.00 | 62 | 1012.0 |
| 20260904201521 | 95 | 197 | 4.0 | 11.0 | 0.00 | 0.00 | 0.00 | 47 | 1010.0 |
| 20260904200013 | 95 | 254 | 4.0 | 15.0 | 0.00 | 0.00 | 0.00 | 47 | 1010.2 |
| 20260904194555 | 80 | 155 | 0.0 | 0.0 | 0.00 | 0.00 | 0.00 | 62 | 1012.3 |
| 20260904194507 | 95 | 155 | 5.0 | 10.0 | 0.00 | 0.00 | 0.00 | 47 | 1010.2 |
| 20260904193052 | 80 | 253 | 0.0 | 0.0 | 0.00 | 0.00 | 0.00 | 62 | 1012.4 |
| 20260904193008 | 95 | 226 | 6.0 | 12.0 | 0.00 | 0.00 | 0.00 | 48 | 1010.4 |
| 20260904191559 | 94 | 212 | 9.0 | 16.0 | 0.00 | 0.00 | 0.00 | 47 | 1010.5 |
| 20260904191548 | 80 | 158 | 0.0 | 0.0 | 0.00 | 0.00 | 0.00 | 61 | 1012.5 |
| 20260904190055 | 93 | 189 | 8.0 | 18.0 | 0.00 | 0.00 | 0.00 | 48 | 1010.5 |
| 20260904190048 | 81 | 151 | 0.0 | 0.0 | 0.00 | 0.00 | 0.00 | 61 | 1012.7 |
| 20260904184555 | 93 | 184 | 5.0 | 13.0 | 0.00 | 0.00 | 0.00 | 50 | 1010.7 |
| 20260904184548 | 80 | 157 | 0.0 | 0.0 | 0.00 | 0.00 | 0.00 | 61 | 1013.1 |
| 20260904183053 | 92 | 178 | 5.0 | 20.0 | 0.00 | 0.00 | 0.00 | 50 | 1010.8 |
| 20260904183042 | 79 | 135 | 0.0 | 0.0 | 0.00 | 0.00 | 0.00 | 61 | 1013.2 |
| 20260904181545 | 78 | 206 | 0.0 | 0.0 | 0.00 | 0.00 | 0.00 | 61 | 1013.2 |
| 20260904181543 | 92 | 184 | 10.0 | 17.0 | 0.00 | 0.00 | 0.00 | 50 | 1010.7 |
| 20260904180050 | 92 | 207 | 7.0 | 15.0 | 0.00 | 0.00 | 0.00 | 52 | 1010.9 |
| 20260904180036 | 78 | 133 | 0.0 | 0.0 | 0.00 | 0.00 | 0.00 | 62 | 1013.4 |
| 20260904174539 | 91 | 203 | 7.0 | 25.0 | 0.00 | 0.00 | 0.00 | 53 | 1011.1 |
| 20260904174535 | 77 | 155 | 0.0 | 0.0 | 0.00 | 0.00 | 0.00 | 64 | 1013.6 |
| 20260904173041 | 91 | 185 | 9.0 | 18.0 | 0.00 | 0.00 | 0.00 | 54 | 1011.2 |
| 20260904173030 | 76 | 146 | 0.0 | 0.0 | 0.00 | 0.00 | 0.00 | 66 | 1013.5 |